AirNav  
 
 1417 users online  

S48 Country Squire Airpark
Sandy, Oregon, USA

GOING TO SANDY?


FAA INFORMATION EFFECTIVE 25 FEBRUARY 2021

Location

FAA Identifier: S48
Lat/Long: 45-21-16.0000N 122-16-05.0000W
45-21.266667N 122-16.083333W
45.3544444,-122.2680556
(estimated)
Elevation: 1175 ft. / 358 m (estimated)
Variation: 19E (1985)
From city: 3 miles S of SANDY, OR
Time zone: UTC -8 (UTC -7 during Daylight Saving Time)
Zip code: 97055

Airport Operations

Airport use: Open to the public
Activation date: 08/1976
Control tower: no
ARTCC: SEATTLE CENTER
FSS: MC MINNVILLE FLIGHT SERVICE STATION
NOTAMs facility: MMV (NOTAM-D service available)
Attendance: IREG
Wind indicator: yes
Segmented circle: no
Landing fee: yes, OVERNIGHT TIEDOWN FEE AND LNDG FEE FOR NON BASED ACFT .

Airport Communications

CTAF: 122.9
WX ASOS at TTD (13 nm NW): 135.625 (503-492-2887)
WX ASOS at PDX (20 nm NW): PHONE (503) 493-7687

Nearby radio navigation aids

VOR radial/distance  VOR name  Freq  Var
BTGr129/27.2BATTLE GROUND VORTAC116.6021E
UBGr069/29.9NEWBERG VOR/DME117.4021E

 
NDB name  Hdg/Dist  Freq  Var  ID
BANKS101/36.735616EPND .--. -. -..

Airport Services

Parking: hangars and tiedowns
Airframe service: NONE
Powerplant service: NONE
Bottled oxygen: NONE
Bulk oxygen: NONE

Runway Information

Runway 7/25

Dimensions: 3095 x 32 ft. / 943 x 10 m
Surface: asphalt, in excellent condition
Weight bearing capacity: 
Single wheel: 7.0
Operational restrictions: RUNWAY MAGNETIC HEADING 080-260 DEGREES
RUNWAY 7  RUNWAY 25
Traffic pattern: leftleft
Markings: nonenone
Obstructions: none88 ft. tree, 930 ft. from runway, 8:1 slope to clear
RWY 25 +40-45 FT TREES FM RY END TO 200 FT - 90 FT L AND PRIVATE ROAD LEADING INTO AIRPORT.

Airport Ownership and Management from official FAA records

Ownership: Privately-owned
Owner: A. F. & H. C. SKIPPER
PO BOX 571
SANDY, OR 97055
Phone 503-668-6808
Manager: ARTHUR F. SKIPPER
PO BOX 571
SANDY, OR 97055
Phone 503-668-6808

Airport Operational Statistics

Aircraft based on the field: 27
Single engine airplanes: 26
Multi engine airplanes: 1
    
Aircraft operations: avg 38/week *
60% transient general aviation
40% local general aviation
* for 12-month period ending 31 July 2018

Additional Remarks

DEER ON AND IN VICINITY OF ARPT.
FOR CD CTC PORTLAND APCH AT 503-493-7545.

Instrument Procedures

There are no published instrument procedures at S48.

Some nearby airports with instrument procedures:

KTTD - Portland-Troutdale Airport (13 nm NW)
KPDX - Portland International Airport (20 nm NW)
KUAO - Aurora State Airport (22 nm W)
KVUO - Pearson Field Airport (23 nm NW)
KHIO - Portland-Hillsboro Airport (31 nm W)
 
Loc | Ops | Rwys | IFR | FBO | Links
Com | Nav | Svcs | Stats | Notes
Area around S48 (Country Squire Airpark)
 
Road maps at: MapQuest Bing Google
 
Aerial photo
WARNING: Photo may not be current or correct
Aerial photo of S48 (Country Squire Airpark)
Do you have a better or more recent aerial photo of Country Squire Airpark that you would like to share? If so, please send us your photo.

 
Sectional chart

 
Airport distance calculator
Flying to Country Squire Airpark? Find the distance to fly.

From to S48

Sunrise and sunset
Times for 05-Mar-2021
 Local
(UTC-8)
 Zulu
(UTC)
Morning civil twilight06:1114:11
Sunrise06:4114:41
Sunset18:0002:00
Evening civil twilight18:3002:30

Current date and time
Zulu (UTC)  05-Mar-2021 17:19:38
Local (UTC-8)  05-Mar-2021 09:19:38
 
METAR
KTTD 
13nm NW 
051653Z 10005KT 10SM -RA OVC070 08/03 A2999 RMK AO2 SLP153 P0000 T00780033 $
KPDX 
20nm NW 
051653Z 11009KT 10SM -RA BKN065 OVC090 08/04 A2997 RMK AO2 RAE19B37 SLP148 P0000 T00780039
KUAO 
22nm W 
051653Z 18005KT 3SM -RA BR BKN050 OVC060 06/05 A2998 RMK AO2 RAB24 SLP153 P0003 T00610050
KVUO 
22nm NW 
051653Z AUTO VRB04KT 9SM -RA SCT050 OVC070 09/03 A2996 RMK AO2 SLP146 P0001 T00890028
TAF
KPDX 
20nm NW 
051326Z 0513/0612 10008KT P6SM BKN110 FM051500 13005KT 6SM -RA OVC050 WS020/19040KT FM051700 18012G22KT 6SM -RA OVC035 FM052000 19008KT P6SM -RA OVC035 FM060100 17006KT P6SM OVC045
NOTAMs
Click for the latest NOTAMs
NOTAMs are issued by the DoD/FAA and will open in a separate window not controlled by AirNav.

 

 
 

Would you like to see your business listed on this page?

 If your business provides an interesting product or service to pilots, flight crews, aircraft, or users of the Country Squire Airpark, you should consider listing it here.  To start the listing process, click on the button below
 
Add a business
 

Other Pages about Country Squire Airpark

Update a link
 
Copyright © AirNav, LLC. All rights reserved. Privacy Policy  Contact